FW7813 Weather Reports


time (UTC)temp
C
wind
direction
speed
KPH
gust
KPH
rain 1hr
cm
rain 24hr
cm
rain mn
cm
humidity
%
barometer
mb
20260906213053 35 188 6.4 17.7 0.00 0.00 0.00 30 1015.3
20260906212528 35 57 6.4 20.9 0.00 0.00 0.00 30 1015.5
20260906212031 35 107 8.0 22.5 0.00 0.00 0.00 31 1015.7
20260906211552 35 138 8.0 22.5 0.00 0.00 0.00 32 1015.5
20260906211028 34 119 3.2 20.9 0.00 0.00 0.00 32 1015.5
20260906210528 35 69 8.0 20.9 0.00 0.00 0.00 31 1015.6
20260906210045 35 128 4.8 19.3 0.00 0.00 0.00 32 1015.8
20260906205532 35 110 6.4 19.3 0.00 0.00 0.00 31 1015.9
20260906205032 35 65 4.8 16.1 0.00 0.00 0.00 31 1015.9
20260906204559 35 179 3.2 20.9 0.00 0.00 0.00 33 1015.9
20260906204031 35 157 6.4 20.9 0.00 0.00 0.00 33 1015.9
20260906203529 35 97 8.0 20.9 0.00 0.00 0.00 33 1015.9
20260906203049 35 60 6.4 20.9 0.00 0.00 0.00 33 1015.9
20260906202527 35 88 6.4 17.7 0.00 0.00 0.00 33 1015.9
20260906202030 35 96 6.4 19.3 0.00 0.00 0.00 33 1016.0
20260906201609 35 138 6.4 19.3 0.00 0.00 0.00 33 1016.0
20260906201030 35 150 4.8 17.7 0.00 0.00 0.00 33 1016.1
20260906200529 35 190 6.4 24.1 0.00 0.00 0.00 34 1016.1
20260906200050 35 67 8.0 24.1 0.00 0.00 0.00 33 1016.1
20260906195530 35 108 6.4 20.9 0.00 0.00 0.00 34 1016.3
20260906195031 35 157 9.7 20.9 0.00 0.00 0.00 33 1016.4
20260906194557 36 347 3.2 17.7 0.00 0.00 0.00 33 1016.4
20260906194033 36 0 6.4 22.5 0.00 0.00 0.00 34 1016.6
20260906193529 35 184 1.6 22.5 0.00 0.00 0.00 36 1016.6
20260906193054 35 111 8.0 19.3 0.00 0.00 0.00 34 1016.6
20260906192528 35 77 6.4 19.3 0.00 0.00 0.00 34 1016.6
20260906192028 35 156 4.8 17.7 0.00 0.00 0.00 35 1016.6
20260906191553 34 107 6.4 17.7 0.00 0.00 0.00 35 1016.6
20260906191031 35 113 6.4 14.5 0.00 0.00 0.00 35 1016.8
20260906190531 35 115 4.8 14.5 0.00 0.00 0.00 35 1017.0
20260906190105 34 80 4.8 14.5 0.00 0.00 0.00 36 1017.1
20260906185531 35 129 4.8 16.1 0.00 0.00 0.00 35 1017.1
20260906185031 34 201 6.4 17.7 0.00 0.00 0.00 37 1017.1
20260906184547 33 121 6.4 22.5 0.00 0.00 0.00 37 1017.1
20260906184031 33 192 6.4 22.5 0.00 0.00 0.00 38 1017.3
20260906183529 32 35 4.8 17.7 0.00 0.00 0.00 38 1017.5
20260906183103 32 121 8.0 17.7 0.00 0.00 0.00 38 1017.6
20260906182529 32 49 1.6 20.9 0.00 0.00 0.00 37 1017.6
20260906182032 32 0 6.4 20.9 0.00 0.00 0.00 39 1017.7
20260906181558 32 105 8.0 20.9 0.00 0.00 0.00 41 1017.8
20260906181028 32 109 4.8 16.1 0.00 0.00 0.00 40 1017.9
20260906180529 33 110 8.0 19.3 0.00 0.00 0.00 38 1017.9
20260906180109 33 60 6.4 19.3 0.00 0.00 0.00 38 1017.9
20260906175530 33 111 6.4 17.7 0.00 0.00 0.00 38 1018.0
20260906175029 33 205 6.4 17.7 0.00 0.00 0.00 37 1018.2
20260906174545 33 69 4.8 19.3 0.00 0.00 0.00 39 1018.1
20260906174029 33 155 8.0 19.3 0.00 0.00 0.00 39 1018.1
20260906173529 33 88 8.0 20.9 0.00 0.00 0.00 39 1018.3
20260906173053 33 112 4.8 20.9 0.00 0.00 0.00 38 1018.4
20260906172529 33 197 6.4 24.1 0.00 0.00 0.00 39 1018.3
20260906172028 33 0 8.0 24.1 0.00 0.00 0.00 39 1018.5
20260906171558 33 115 8.0 22.5 0.00 0.00 0.00 38 1018.4
20260906171030 33 140 4.8 17.7 0.00 0.00 0.00 39 1018.5
20260906170528 33 182 4.8 24.1 0.00 0.00 0.00 41 1018.5
20260906170113 33 134 4.8 24.1 0.00 0.00 0.00 42 1018.5
20260906165532 33 104 4.8 19.3 0.00 0.00 0.00 40 1018.4
20260906165032 33 67 6.4 19.3 0.00 0.00 0.00 40 1018.5
20260906164545 33 111 4.8 19.3 0.00 0.00 0.00 40 1018.5
20260906164029 33 116 4.8 17.7 0.00 0.00 0.00 41 1018.5
20260906163528 33 143 4.8 17.7 0.00 0.00 0.00 42 1018.5
20260906163053 32 117 3.2 16.1 0.00 0.00 0.00 44 1018.5
20260906162528 32 105 3.2 12.9 0.00 0.00 0.00 46 1018.6
20260906162027 31 236 3.2 12.9 0.00 0.00 0.00 48 1018.5
20260906161551 31 113 4.8 12.9 0.00 0.00 0.00 49 1018.6
20260906161028 31 105 3.2 12.9 0.00 0.00 0.00 48 1018.6
20260906160531 31 122 4.8 14.5 0.00 0.00 0.00 49 1018.6
20260906160048 32 121 4.8 14.5 0.00 0.00 0.00 50 1018.5
20260906155530 31 113 1.6 17.7 0.00 0.00 0.00 49 1018.5
20260906155028 32 224 3.2 17.7 0.00 0.00 0.00 48 1018.5
20260906154546 32 103 1.6 12.9 0.00 0.00 0.00 48 1018.4
20260906154031 31 138 1.6 16.1 0.00 0.00 0.00 48 1018.3
20260906153529 31 229 3.2 16.1 0.00 0.00 0.00 49 1018.3
20260906153053 31 271 3.2 11.3 0.00 0.00 0.00 48 1018.4
20260906152530 31 116 1.6 11.3 0.00 0.00 0.00 50 1018.3
20260906152027 31 150 3.2 11.3 0.00 0.00 0.00 51 1018.5
20260906151559 31 342 1.6 11.3 0.00 0.00 0.00 52 1018.4
20260906151029 30 198 3.2 12.9 0.00 0.00 0.00 51 1018.3
20260906150531 30 136 3.2 12.9 0.00 0.00 0.00 52 1018.3
20260906150046 30 101 1.6 12.9 0.00 0.00 0.00 51 1018.4
20260906145529 30 265 1.6 12.9 0.00 0.00 0.00 52 1018.5
20260906145029 30 5 1.6 12.9 0.00 0.00 0.00 52 1018.5
20260906144544 30 257 1.6 12.9 0.00 0.00 0.00 53 1018.4
20260906144027 29 198 3.2 12.9 0.00 0.00 0.00 53 1018.5
20260906143529 29 241 3.2 12.9 0.00 0.00 0.00 53 1018.5
20260906143106 28 0 1.6 12.9 0.00 0.00 0.00 53 1018.5
20260906142528 28 36 1.6 8.0 0.00 0.00 0.00 54 1018.5
20260906142029 28 232 1.6 8.0 0.00 0.00 0.00 55 1018.3
20260906141549 27 0 3.2 8.0 0.00 0.00 0.00 56 1018.3
20260906141031 28 240 0.0 6.4 0.00 0.00 0.00 55 1018.3
20260906140528 28 69 0.0 4.8 0.00 0.00 0.00 56 1018.2
20260906140049 27 0 0.0 9.7 0.00 0.00 0.00 55 1018.1
20260906135528 27 112 1.6 9.7 0.00 0.00 0.00 57 1018.0
20260906135030 27 0 0.0 11.3 0.00 0.00 0.00 57 1018.2
20260906134559 26 175 1.6 11.3 0.00 0.00 0.00 58 1018.1
20260906134028 26 89 0.0 6.4 0.00 0.00 0.00 58 1018.0
20260906133529 26 155 1.6 6.4 0.00 0.00 0.00 59 1017.9
20260906133046 25 80 0.0 4.8 0.00 0.00 0.00 60 1017.9
20260906132528 25 67 0.0 3.2 0.00 0.00 0.00 62 1017.6
20260906132028 24 0 0.0 3.2 0.00 0.00 0.00 64 1017.7
20260906131551 23 134 0.0 4.8 0.00 0.00 0.00 66 1017.7
20260906131027 23 0 0.0 4.8 0.00 0.00 0.00 66 1017.6
20260906130528 22 0 1.6 4.8 0.00 0.00 0.00 67 1017.7
20260906130053 22 0 0.0 0.0 0.00 0.00 0.00 69 1017.7
20260906125531 22 0 0.0 0.0 0.00 0.00 0.00 69 1017.8
20260906125031 22 0 0.0 0.0 0.00 0.00 0.00 69 1017.8
20260906124549 22 0 0.0 0.0 0.00 0.00 0.00 68 1017.8
20260906124030 22 0 0.0 0.0 0.00 0.00 0.00 69 1017.6
20260906123527 22 0 0.0 0.0 0.00 0.00 0.00 69 1017.6
20260906123135 22 0 0.0 3.2 0.00 0.00 0.00 69 1017.5
20260906122528 22 0 0.0 3.2 0.00 0.00 0.00 68 1017.4
20260906122029 21 90 0.0 1.6 0.00 0.00 0.00 69 1017.2
20260906121554 21 0 0.0 3.2 0.00 0.00 0.00 69 1017.3
20260906121028 21 0 0.0 3.2 0.00 0.00 0.00 69 1017.3
20260906120529 21 90 0.0 3.2 0.00 0.00 0.00 69 1017.2
20260906120054 21 0 0.0 3.2 0.00 0.00 0.00 69 1017.3
20260906115528 21 0 0.0 1.6 0.00 0.00 0.00 69 1017.3
20260906115027 22 0 0.0 0.0 0.00 0.00 0.00 68 1017.3
20260906114547 22 0 0.0 0.0 0.00 0.00 0.00 69 1017.3
20260906114026 21 0 0.0 0.0 0.00 0.00 0.00 69 1017.1
20260906113527 21 0 0.0 0.0 0.00 0.00 0.00 69 1017.1
20260906113046 21 0 0.0 0.0 0.00 0.00 0.00 69 1017.0
20260906112528 21 0 0.0 0.0 0.00 0.00 0.00 69 1016.9
20260906112029 21 0 0.0 0.0 0.00 0.00 0.00 68 1016.9
20260906111555 21 0 0.0 0.0 0.00 0.00 0.00 68 1017.1
20260906111029 21 0 0.0 0.0 0.00 0.00 0.00 68 1017.0
20260906110532 22 0 0.0 0.0 0.00 0.00 0.00 68 1016.9
20260906110052 22 0 0.0 0.0 0.00 0.00 0.00 68 1016.9
20260906105530 22 0 0.0 0.0 0.00 0.00 0.00 68 1017.0
20260906105032 22 0 0.0 0.0 0.00 0.00 0.00 68 1016.9
20260906104549 22 0 0.0 0.0 0.00 0.00 0.00 67 1016.9
20260906104033 22 0 0.0 0.0 0.00 0.00 0.00 67 1017.0
20260906103530 22 0 0.0 3.2 0.00 0.00 0.00 67 1016.8
20260906103056 22 0 0.0 3.2 0.00 0.00 0.00 67 1017.0
20260906102532 22 0 0.0 3.2 0.00 0.00 0.00 67 1017.1
20260906102031 22 0 0.0 0.0 0.00 0.00 0.00 67 1017.0
20260906101553 22 0 0.0 0.0 0.00 0.00 0.00 67 1016.7
20260906101028 22 0 0.0 0.0 0.00 0.00 0.00 67 1016.7
20260906100534 22 0 0.0 0.0 0.00 0.00 0.00 66 1016.7
20260906100053 22 0 0.0 0.0 0.00 0.00 0.00 67 1016.8
20260906095532 22 0 0.0 0.0 0.00 0.00 0.00 66 1016.7
20260906095034 22 0 0.0 0.0 0.00 0.00 0.00 66 1016.7
20260906094602 22 0 0.0 0.0 0.00 0.00 0.00 65 1016.7
20260906094032 22 0 0.0 0.0 0.00 0.00 0.00 65 1016.8
20260906093532 22 0 0.0 0.0 0.00 0.00 0.00 64 1016.8
20260906093056 22 0 0.0 0.0 0.00 0.00 0.00 64 1016.7
20260906092530 23 0 0.0 0.0 0.00 0.00 0.00 63 1016.8
20260906092029 23 0 0.0 0.0 0.00 0.00 0.00 63 1016.8
20260906091603 23 0 0.0 0.0 0.00 0.00 0.00 63 1016.8
20260906091032 23 0 0.0 3.2 0.00 0.00 0.00 63 1016.8
20260906090533 23 0 0.0 3.2 0.00 0.00 0.00 63 1016.8
20260906090048 23 0 0.0 0.0 0.00 0.00 0.00 63 1016.8
20260906085532 23 0 0.0 0.0 0.00 0.00 0.00 62 1016.8
20260906085031 23 0 0.0 0.0 0.00 0.00 0.00 62 1016.7
20260906084557 23 0 0.0 0.0 0.00 0.00 0.00 62 1016.8
20260906084031 23 0 0.0 0.0 0.00 0.00 0.00 62 1016.8
20260906083532 23 0 0.0 0.0 0.00 0.00 0.00 61 1016.8
20260906083045 23 0 0.0 0.0 0.00 0.00 0.00 61 1016.7
20260906082531 24 0 0.0 1.6 0.00 0.00 0.00 61 1016.7
20260906082046 24 0 0.0 3.2 0.00 0.00 0.00 60 1016.7
20260906081553 24 0 0.0 3.2 0.00 0.00 0.00 60 1016.8
20260906081031 24 164 0.0 4.8 0.00 0.00 0.00 60 1016.7
20260906080532 24 0 0.0 4.8 0.00 0.00 0.00 60 1016.7
20260906080053 24 0 0.0 4.8 0.00 0.00 0.00 60 1016.8
20260906075532 24 0 0.0 4.8 0.00 0.00 0.00 60 1016.6
20260906075031 24 0 0.0 4.8 0.00 0.00 0.00 60 1016.9
20260906074550 24 0 0.0 4.8 0.00 0.00 0.00 60 1016.7
20260906074031 24 0 0.0 6.4 0.00 0.00 0.00 60 1016.6
20260906073532 24 102 1.6 6.4 0.00 0.00 0.00 59 1016.7
20260906073045 24 0 0.0 4.8 0.00 0.00 0.00 59 1016.8
20260906072529 24 101 0.0 4.8 0.00 0.00 0.00 59 1016.8
20260906072029 24 0 0.0 4.8 0.00 0.00 0.00 59 1016.9
20260906071553 24 0 0.0 4.8 0.00 0.00 0.00 59 1017.1
20260906071029 24 0 0.0 4.8 0.00 0.00 0.00 59 1017.0
20260906070529 24 0 0.0 4.8 0.00 0.00 0.00 59 1017.0
20260906070051 25 0 1.6 4.8 0.00 0.00 0.00 58 1017.0
20260906065532 25 87 0.0 4.8 0.00 0.00 0.00 58 1017.0
20260906065030 25 0 0.0 3.2 0.00 0.00 0.00 58 1017.0
20260906064556 25 0 0.0 3.2 0.00 0.00 0.00 58 1017.0
20260906064033 25 0 0.0 1.6 0.00 0.00 0.00 57 1016.9
20260906063532 25 0 0.0 3.2 0.00 0.00 0.00 57 1017.1
20260906063059 25 0 0.0 4.8 0.00 0.00 0.00 57 1017.0
20260906062528 25 0 0.0 4.8 0.00 0.00 0.00 56 1017.0
20260906062031 25 94 0.0 6.4 0.00 0.00 0.00 56 1016.8
20260906061555 25 110 0.0 6.4 0.00 0.00 0.00 55 1017.0
20260906061031 26 0 0.0 6.4 0.00 0.00 0.00 55 1017.0
20260906060528 26 101 1.6 6.4 0.00 0.00 0.00 54 1017.1
20260906060052 26 0 0.0 4.8 0.00 0.00 0.00 54 1017.0
20260906055530 26 129 0.0 4.8 0.00 0.00 0.00 53 1017.1
20260906055028 26 0 0.0 4.8 0.00 0.00 0.00 52 1017.1
20260906054546 27 128 0.0 4.8 0.00 0.00 0.00 52 1017.0
20260906054032 27 0 0.0 3.2 0.00 0.00 0.00 51 1017.1
20260906053529 27 0 0.0 8.0 0.00 0.00 0.00 51 1017.1
20260906053104 27 0 1.6 12.9 0.00 0.00 0.00 50 1017.1
20260906052532 27 136 3.2 12.9 0.00 0.00 0.00 50 1016.8
20260906052032 27 0 3.2 9.7 0.00 0.00 0.00 50 1016.8
20260906051554 27 86 1.6 6.4 0.00 0.00 0.00 49 1016.9
20260906051030 28 107 1.6 6.4 0.00 0.00 0.00 49 1016.9
20260906050619 28 145 0.0 11.3 0.00 0.00 0.00 49 1016.9
20260906050054 28 140 1.6 11.3 0.00 0.00 0.00 49 1016.9
20260906045532 28 123 3.2 11.3 0.00 0.00 0.00 48 1016.9
20260906045032 28 126 1.6 11.3 0.00 0.00 0.00 48 1016.9
20260906044555 28 92 3.2 9.7 0.00 0.00 0.00 48 1016.8
20260906044032 28 55 1.6 9.7 0.00 0.00 0.00 48 1016.8
20260906043531 28 0 1.6 16.1 0.00 0.00 0.00 47 1016.6
20260906043100 28 115 1.6 16.1 0.00 0.00 0.00 47 1016.7
20260906042531 28 113 3.2 16.1 0.00 0.00 0.00 47 1016.8
20260906042028 28 95 3.2 12.9 0.00 0.00 0.00 47 1016.8
20260906041557 28 145 1.6 12.9 0.00 0.00 0.00 47 1016.7
20260906041028 28 109 1.6 11.3 0.00 0.00 0.00 47 1016.7
20260906040530 28 0 1.6 11.3 0.00 0.00 0.00 48 1016.7
20260906040050 28 0 0.0 4.8 0.00 0.00 0.00 48 1016.8
20260906035529 28 0 0.0 4.8 0.00 0.00 0.00 48 1016.7
20260906035029 28 100 0.0 4.8 0.00 0.00 0.00 48 1016.8
20260906034555 28 105 0.0 3.2 0.00 0.00 0.00 47 1016.9
20260906034031 28 0 0.0 3.2 0.00 0.00 0.00 47 1016.9
20260906033531 28 0 0.0 4.8 0.00 0.00 0.00 47 1016.9
20260906033106 28 146 0.0 4.8 0.00 0.00 0.00 47 1016.9
20260906032532 28 0 0.0 4.8 0.00 0.00 0.00 47 1016.8
20260906032032 28 0 0.0 4.8 0.00 0.00 0.00 46 1016.5
20260906031550 29 0 0.0 0.0 0.00 0.00 0.00 46 1016.4
20260906031030 29 0 0.0 6.4 0.00 0.00 0.00 46 1016.2
20260906030532 29 0 0.0 6.4 0.00 0.00 0.00 46 1016.1
20260906030050 29 0 0.0 4.8 0.00 0.00 0.00 46 1015.9
20260906025532 30 84 0.0 4.8 0.00 0.00 0.00 45 1016.0
20260906025032 30 107 0.0 6.4 0.00 0.00 0.00 44 1015.9
20260906024549 30 0 0.0 11.3 0.00 0.00 0.00 43 1015.8
20260906024029 30 191 1.6 11.3 0.00 0.00 0.00 43 1015.8
20260906023537 30 87 1.6 11.3 0.00 0.00 0.00 42 1015.6
20260906023055 30 156 0.0 11.3 0.00 0.00 0.00 42 1015.6
20260906022528 30 107 1.6 11.3 0.00 0.00 0.00 42 1015.6
20260906022030 30 113 1.6 9.7 0.00 0.00 0.00 42 1015.5
20260906021552 30 116 1.6 6.4 0.00 0.00 0.00 42 1015.6
20260906021030 30 0 1.6 6.4 0.00 0.00 0.00 42 1015.5
20260906020530 30 111 1.6 6.4 0.00 0.00 0.00 42 1015.4
20260906020104 31 105 0.0 12.9 0.00 0.00 0.00 42 1015.2
20260906015528 31 108 1.6 12.9 0.00 0.00 0.00 42 1015.2
20260906015030 31 127 0.0 9.7 0.00 0.00 0.00 42 1015.0
20260906014556 31 88 3.2 8.0 0.00 0.00 0.00 42 1015.1
20260906014037 31 86 1.6 6.4 0.00 0.00 0.00 41 1014.7
20260906013528 31 0 0.0 9.7 0.00 0.00 0.00 41 1014.6
20260906013106 31 90 0.0 11.3 0.00 0.00 0.00 41 1014.5
20260906012529 31 104 1.6 11.3 0.00 0.00 0.00 41 1014.5
20260906012032 31 80 1.6 12.9 0.00 0.00 0.00 41 1014.6
20260906011602 31 200 1.6 12.9 0.00 0.00 0.00 41 1014.5
20260906011033 31 0 1.6 12.9 0.00 0.00 0.00 41 1014.4
20260906010532 32 116 1.6 9.7 0.00 0.00 0.00 41 1014.4
20260906010057 32 92 1.6 9.7 0.00 0.00 0.00 40 1014.3
20260906005528 32 101 0.0 9.7 0.00 0.00 0.00 39 1014.4
20260906005031 32 94 0.0 6.4 0.00 0.00 0.00 39 1014.4
20260906004556 32 115 1.6 6.4 0.00 0.00 0.00 39 1014.5
20260906004033 32 0 1.6 12.9 0.00 0.00 0.00 38 1014.4
20260906003528 32 114 3.2 12.9 0.00 0.00 0.00 38 1014.4
20260906003057 32 156 3.2 12.9 0.00 0.00 0.00 38 1014.4
20260906002531 33 0 3.2 12.9 0.00 0.00 0.00 38 1014.4
20260906002035 33 111 3.2 11.3 0.00 0.00 0.00 38 1014.1
20260906001553 33 105 1.6 11.3 0.00 0.00 0.00 37 1014.1
20260906001029 33 108 1.6 11.3 0.00 0.00 0.00 38 1014.0
20260906000528 33 99 1.6 14.5 0.00 0.00 0.00 38 1014.1
20260906000058 33 126 6.4 14.5 0.00 0.00 0.00 37 1014.1
20260905235529 33 112 4.8 22.5 0.00 0.00 0.00 37 1013.9
20260905235030 33 184 6.4 22.5 0.00 0.00 0.00 37 1013.8
20260905234548 34 86 4.8 22.5 0.00 0.00 0.00 36 1013.8
20260905234031 34 112 3.2 17.7 0.00 0.00 0.00 36 1013.6
20260905233532 35 109 6.4 17.7 0.00 0.00 0.00 35 1013.5
20260905233044 35 100 6.4 14.5 0.00 0.00 0.00 34 1013.5
20260905232529 35 96 6.4 20.9 0.00 0.00 0.00 33 1013.3
20260905232030 35 110 8.0 20.9 0.00 0.00 0.00 33 1013.3
20260905231555 35 122 3.2 16.1 0.00 0.00 0.00 33 1013.4
20260905231028 35 108 4.8 12.9 0.00 0.00 0.00 33 1013.5
20260905230530 35 163 4.8 17.7 0.00 0.00 0.00 33 1013.4
20260905230054 35 178 6.4 17.7 0.00 0.00 0.00 32 1013.4
20260905225532 35 111 1.6 14.5 0.00 0.00 0.00 32 1013.2
20260905225029 36 173 3.2 14.5 0.00 0.00 0.00 32 1013.3
20260905224556 36 140 3.2 14.5 0.00 0.00 0.00 31 1013.3
20260905224028 36 120 3.2 16.1 0.00 0.00 0.00 31 1013.6
20260905223530 36 156 6.4 16.1 0.00 0.00 0.00 31 1013.4
20260905223055 36 53 4.8 16.1 0.00 0.00 0.00 31 1013.4
20260905222530 36 126 6.4 16.1 0.00 0.00 0.00 30 1013.5
20260905222031 36 112 4.8 14.5 0.00 0.00 0.00 31 1013.4
20260905221553 36 163 4.8 19.3 0.00 0.00 0.00 31 1013.4
20260905221028 36 169 4.8 19.3 0.00 0.00 0.00 32 1013.5
20260905220531 36 108 8.0 19.3 0.00 0.00 0.00 32 1013.6
20260905220051 35 59 3.2 14.5 0.00 0.00 0.00 33 1013.6
20260905215531 35 119 3.2 20.9 0.00 0.00 0.00 33 1013.7
20260905215032 35 111 6.4 20.9 0.00 0.00 0.00 34 1013.8
20260905214547 35 96 3.2 17.7 0.00 0.00 0.00 33 1013.9
20260905214029 36 150 8.0 17.7 0.00 0.00 0.00 32 1013.9
20260905213528 36 178 6.4 20.9 0.00 0.00 0.00 31 1013.9